Regional Weather Roundup
Issued by NWS

Home | Current Version | Previous Version | Text Only | Print | Product List | Glossary Off
Versions: 1 2 3 4 5 6 7 8 9 10 11 12 13 14 15 16 17 18 19 20 21 22 23 24 25 26 27 28

000
ASUS45 KBOI 241610
RWRID
WEATHER ROUNDUP FOR IDAHO
NATIONAL WEATHER SERVICE BOISE ID
1000 AM MDT FRI OCT 24 2014

NOTE: "FAIR" INDICATES FEW OR NO CLOUDS BELOW 12000 FEET
WITH NO SIGNIFICANT WEATHER AND/OR OBSTRUCTIONS TO VISIBILITY

IDZ012-014-241700-
SOUTHWEST IDAHO


CITY           SKY/WX    TMP DP  RH WIND       PRES   REMARKS
BOISE          CLOUDY    52  49  89 CALM      30.11R
CALDWELL       CLOUDY    52  43  71 CALM      30.13S
MOUNTAIN HOME  CLOUDY    53  53 100 E2        30.11R
$$

IDZ016-017-241700-
SOUTHCENTRAL IDAHO


CITY           SKY/WX    TMP DP  RH WIND       PRES   REMARKS
BURLEY         SUNNY     52  39  61 NE5       30.12R
JEROME         SUNNY     56  39  53 E9        30.12S
TWIN FALLS     SUNNY     59  39  47 CALM      30.12R
$$

IDZ019>023-241700-
SOUTHEAST IDAHO


CITY           SKY/WX    TMP DP  RH WIND       PRES   REMARKS
IDAHO FALLS    PTSUNNY   53  40  61 SW10      30.17R
POCATELLO      MOSUNNY   56  39  53 CALM      30.16R
REXBURG        CLOUDY    52  39  61 S9        30.16S
$$

IDZ006-010-011-018-031-032-241700-
CENTRAL IDAHO MOUNTAINS


CITY           SKY/WX    TMP DP  RH WIND       PRES   REMARKS
MCCALL         LGT RAIN  42  40  92 NE3       30.12R
HAILEY         PTSUNNY   48  45  87 W6        30.18R
STANLEY          N/A     43  40  89 VRB3      30.17R
SALMON         CLOUDY    46  45  93 CALM      30.12R
CHALLIS        CLOUDY    45  42  89 S3        30.12R
$$

IDZ002-004-006-007-026-241700-
NORTHERN IDAHO


CITY           SKY/WX    TMP DP  RH WIND       PRES   REMARKS
LEWISTON       CLOUDY    50  47  89 CALM      30.10R
LOWELL           N/A     50  48  93 N3        30.14S
COEUR D`ALENE  CLOUDY    45  39  81 CALM      30.09R
MULLAN PASS    CLOUDY    33  31  92 VRB3      30.08R
$$



USA.gov is the U.S. government's official web portal to all federal, state and local government web resources and services.